TimeEST,TemperatureF,Dew PointF,Humidity,Sea Level PressureIn,VisibilityMPH,Wind Direction,Wind SpeedMPH,Gust SpeedMPH,PrecipitationIn,Events,Conditions,WindDirDegrees,DateUTC
12:15 AM,51.8,41.0,67,30.13,10.0,SSW,3.5,-,N/A,,Overcast,200,2013-01-01 05:15:00
12:35 AM,50.0,42.8,76,30.11,10.0,South,4.6,-,N/A,,Mostly Cloudy,190,2013-01-01 05:35:00
12:55 AM,50.0,42.8,76,30.10,10.0,South,3.5,-,N/A,,Scattered Clouds,180,2013-01-01 05:55:00
1:15 AM,50.0,42.8,76,30.09,10.0,South,5.8,-,N/A,,Scattered Clouds,170,2013-01-01 06:15:00
1:35 AM,48.2,42.8,82,30.10,10.0,SSW,4.6,-,N/A,,Scattered Clouds,200,2013-01-01 06:35:00
2:15 AM,48.2,42.8,82,30.07,10.0,South,4.6,-,N/A,,Clear,190,2013-01-01 07:15:00
2:35 AM,48.2,42.8,82,30.09,10.0,SSW,3.5,-,N/A,,Clear,200,2013-01-01 07:35:00
2:55 AM,46.4,42.8,87,30.08,10.0,SSW,3.5,-,N/A,,Clear,200,2013-01-01 07:55:00
3:15 AM,48.2,42.8,82,30.09,10.0,SSW,4.6,-,N/A,,Scattered Clouds,200,2013-01-01 08:15:00
3:35 AM,48.2,44.6,87,30.07,10.0,South,5.8,-,N/A,,Mostly Cloudy,170,2013-01-01 08:35:00
4:15 AM,48.2,44.6,87,30.06,10.0,South,3.5,-,N/A,,Clear,180,2013-01-01 09:15:00
4:35 AM,48.2,44.6,87,30.05,10.0,South,3.5,-,N/A,,Clear,180,2013-01-01 09:35:00
5:15 AM,50.0,44.6,82,30.06,10.0,SSW,4.6,-,N/A,,Overcast,200,2013-01-01 10:15:00
5:35 AM,50.0,44.6,82,30.06,10.0,South,4.6,-,N/A,,Overcast,190,2013-01-01 10:35:00
5:55 AM,50.0,44.6,82,30.05,10.0,South,4.6,-,N/A,,Overcast,190,2013-01-01 10:55:00
6:15 AM,50.0,44.6,82,30.06,10.0,SSW,6.9,-,N/A,,Overcast,210,2013-01-01 11:15:00
6:35 AM,50.0,44.6,82,30.05,10.0,South,3.5,-,N/A,,Overcast,170,2013-01-01 11:35:00
6:55 AM,50.0,44.6,82,30.06,10.0,Calm,Calm,-,N/A,,Overcast,0,2013-01-01 11:55:00
7:15 AM,50.0,44.6,82,30.05,10.0,SSE,3.5,-,N/A,,Overcast,150,2013-01-01 12:15:00
7:35 AM,50.0,44.6,82,30.06,10.0,Calm,Calm,-,N/A,,Overcast,0,2013-01-01 12:35:00
7:55 AM,50.0,44.6,82,30.06,10.0,Calm,Calm,-,N/A,,Overcast,0,2013-01-01 12:55:00
8:15 AM,50.0,44.6,82,30.06,10.0,Calm,Calm,-,N/A,,Overcast,0,2013-01-01 13:15:00
8:35 AM,50.0,44.6,82,30.06,10.0,Calm,Calm,-,N/A,,Overcast,0,2013-01-01 13:35:00
8:55 AM,50.0,46.4,87,30.06,10.0,Calm,Calm,-,N/A,,Overcast,0,2013-01-01 13:55:00
9:15 AM,50.0,46.4,87,30.06,10.0,SSE,3.5,-,N/A,,Overcast,160,2013-01-01 14:15:00
9:35 AM,50.0,46.4,87,30.07,10.0,South,3.5,-,N/A,,Overcast,170,2013-01-01 14:35:00
9:55 AM,51.8,46.4,82,30.06,10.0,SE,3.5,-,N/A,,Overcast,130,2013-01-01 14:55:00
10:15 AM,51.8,46.4,82,30.08,10.0,Calm,Calm,-,N/A,Rain,Light Rain,0,2013-01-01 15:15:00
10:35 AM,51.8,46.4,82,30.09,10.0,Calm,Calm,-,N/A,,Overcast,0,2013-01-01 15:35:00
10:55 AM,51.8,46.4,82,30.09,10.0,Calm,Calm,-,N/A,Rain,Light Rain,0,2013-01-01 15:55:00
11:15 AM,51.8,46.4,82,30.07,10.0,Calm,Calm,-,N/A,,Overcast,0,2013-01-01 16:15:00
11:35 AM,51.8,48.2,88,30.06,7.0,Calm,Calm,-,N/A,,Overcast,0,2013-01-01 16:35:00
11:55 AM,53.6,48.2,82,30.05,10.0,Calm,Calm,-,N/A,,Light Drizzle,0,2013-01-01 16:55:00
12:15 PM,53.6,48.2,82,30.05,10.0,Calm,Calm,-,N/A,,Overcast,0,2013-01-01 17:15:00
12:35 PM,53.6,50.0,88,30.03,10.0,Calm,Calm,-,N/A,,Overcast,0,2013-01-01 17:35:00
12:55 PM,53.6,50.0,88,30.02,10.0,Calm,Calm,-,N/A,,Overcast,0,2013-01-01 17:55:00
1:15 PM,53.6,50.0,88,30.00,10.0,Calm,Calm,-,N/A,,Overcast,0,2013-01-01 18:15:00
1:35 PM,53.6,50.0,88,30.00,10.0,Calm,Calm,-,N/A,,Overcast,0,2013-01-01 18:35:00
2:15 PM,55.4,50.0,82,29.97,10.0,Calm,Calm,-,N/A,,Overcast,0,2013-01-01 19:15:00
2:35 PM,55.4,50.0,82,29.97,10.0,Calm,Calm,-,N/A,,Overcast,0,2013-01-01 19:35:00
3:15 PM,55.4,50.0,82,29.97,10.0,Calm,Calm,-,N/A,,Overcast,0,2013-01-01 20:15:00
3:35 PM,55.4,50.0,82,29.97,10.0,Calm,Calm,-,N/A,,Overcast,0,2013-01-01 20:35:00
3:55 PM,55.4,50.0,82,29.97,10.0,Calm,Calm,-,N/A,,Overcast,0,2013-01-01 20:55:00
4:15 PM,55.4,50.0,82,29.96,10.0,Calm,Calm,-,N/A,,Overcast,0,2013-01-01 21:15:00
4:35 PM,53.6,50.0,88,29.96,10.0,NNW,3.5,-,N/A,,Overcast,340,2013-01-01 21:35:00
4:55 PM,53.6,51.8,94,29.96,7.0,Calm,Calm,-,N/A,,Overcast,0,2013-01-01 21:55:00
5:15 PM,53.6,51.8,94,29.96,5.0,Calm,Calm,-,N/A,,Light Drizzle,0,2013-01-01 22:15:00
5:35 PM,53.6,51.8,94,29.95,4.0,Calm,Calm,-,N/A,,Overcast,0,2013-01-01 22:35:00
5:55 PM,53.6,51.8,94,29.94,4.0,Calm,Calm,-,N/A,,Overcast,0,2013-01-01 22:55:00
6:15 PM,53.6,51.8,94,29.94,3.0,Calm,Calm,-,N/A,Rain,Rain,0,2013-01-01 23:15:00
6:35 PM,53.6,51.8,94,29.94,2.5,Calm,Calm,-,N/A,,Drizzle,0,2013-01-01 23:35:00
6:55 PM,53.6,51.8,94,29.93,3.0,Calm,Calm,-,N/A,Rain,Rain,0,2013-01-01 23:55:00
7:15 PM,51.8,51.8,100,29.94,4.0,Calm,Calm,-,N/A,,Overcast,0,2013-01-02 00:15:00
7:35 PM,51.8,51.8,100,29.94,4.0,Calm,Calm,-,N/A,,Overcast,0,2013-01-02 00:35:00
7:55 PM,51.8,50.0,94,29.93,7.0,Calm,Calm,-,N/A,,Overcast,0,2013-01-02 00:55:00
8:15 PM,51.8,50.0,94,29.93,7.0,Calm,Calm,-,N/A,Rain,Rain,0,2013-01-02 01:15:00
8:35 PM,51.8,50.0,94,29.94,4.0,Calm,Calm,-,N/A,Rain,Heavy Rain,0,2013-01-02 01:35:00
8:55 PM,51.8,50.0,94,29.94,3.0,Calm,Calm,-,N/A,,Heavy Drizzle,0,2013-01-02 01:55:00
9:15 PM,51.8,50.0,94,29.93,3.0,Calm,Calm,-,N/A,Rain,Heavy Rain,0,2013-01-02 02:15:00
9:35 PM,50.0,50.0,100,29.92,2.5,East,4.6,-,N/A,Rain,Rain,100,2013-01-02 02:35:00
9:55 PM,51.8,50.0,94,29.90,4.0,ESE,5.8,-,N/A,Rain,Heavy Rain,110,2013-01-02 02:55:00
10:15 PM,51.8,50.0,94,29.90,5.0,Calm,Calm,-,N/A,,Overcast,0,2013-01-02 03:15:00
10:35 PM,51.8,50.0,94,29.91,7.0,Calm,Calm,-,N/A,,Overcast,0,2013-01-02 03:35:00
10:55 PM,51.8,50.0,94,29.90,3.0,Calm,Calm,-,N/A,,Drizzle,0,2013-01-02 03:55:00
11:15 PM,51.8,50.0,94,29.90,4.0,Calm,Calm,-,N/A,,Light Drizzle,0,2013-01-02 04:15:00
11:35 PM,51.8,51.8,100,29.90,3.0,Calm,Calm,-,N/A,Rain,Heavy Rain,0,2013-01-02 04:35:00
11:55 PM,51.8,50.0,94,29.90,3.0,Calm,Calm,-,N/A,Rain,Light Rain,0,2013-01-02 04:55:00